UAL982 KIAD-TJSJ

Flight info

Callsign UAL982
Flight time 3h 19m
Altitude 38000
Route JCOBY4 SCOOB DCT KEMPR/N0454F370 DCT ECG AR8 OXANA/M080F370 L452 LNHOM/N0461F390 L452 SLUKA DCT FIPEK Y355 PLING DCT WEXET SAALR2
Aircraft B38M/M-SDE1FGHILORVWXY/HB1

Departure

Time 2026-05-04 17:25
Airport Washington Dulles International Airport (KIAD)

Arrival

Time 2026-05-04 20:45
Airport Luis Munoz Marin International Airport (TJSJ)
Time Latitude Longitude Altitude Speed Heading
2026-05-04 16:59 38.94494 -77.44895 305 ft 0 kts 356°
2026-05-04 17:15 38.94474 -77.44894 304 ft 4 kts 360°
2026-05-04 17:15 38.94423 -77.44881 303 ft 4 kts 320°
2026-05-04 17:16 38.94411 -77.44854 305 ft 2 kts 270°
2026-05-04 17:19 38.94412 -77.44857 305 ft 1 kts 270°
2026-05-04 17:20 38.94412 -77.44962 306 ft 15 kts 270°
2026-05-04 17:20 38.94415 -77.45321 303 ft 21 kts 271°
2026-05-04 17:20 38.94417 -77.45490 303 ft 16 kts 270°
2026-05-04 17:21 38.94263 -77.45614 304 ft 17 kts 180°
2026-05-04 17:21 38.94051 -77.45616 305 ft 15 kts 181°
2026-05-04 17:22 38.93941 -77.45619 303 ft 16 kts 179°
2026-05-04 17:22 38.93823 -77.45620 303 ft 18 kts 181°
2026-05-04 17:23 38.93520 -77.45529 302 ft 16 kts 201°
2026-05-04 17:23 38.93459 -77.45558 303 ft 0 kts 201°
2026-05-04 17:23 38.93456 -77.45559 302 ft 2 kts 201°
2026-05-04 17:24 38.93409 -77.45585 301 ft 13 kts 207°
2026-05-04 17:24 38.93648 -77.46574 307 ft 122 kts 290°
2026-05-04 17:25 38.94028 -77.47852 361 ft 181 kts 288°
2026-05-04 17:25 38.94944 -77.51219 2121 ft 204 kts 281°
2026-05-04 17:26 38.96263 -77.54994 3324 ft 257 kts 316°
2026-05-04 17:26 39.01543 -77.55502 5831 ft 277 kts 18°
2026-05-04 17:27 39.05185 -77.53509 7263 ft 287 kts 19°
2026-05-04 17:27 39.08242 -77.51741 8584 ft 291 kts 19°
2026-05-04 17:28 39.11780 -77.49152 10136 ft 305 kts 46°
2026-05-04 17:29 39.13813 -77.41076 12172 ft 327 kts 73°
2026-05-04 17:29 39.15522 -77.32457 14348 ft 338 kts 77°
2026-05-04 17:30 39.14629 -77.23382 16440 ft 347 kts 101°
2026-05-04 17:31 39.13271 -77.17379 17798 ft 352 kts 122°
2026-05-04 17:31 39.08575 -77.09649 18672 ft 392 kts 131°
2026-05-04 17:32 39.04929 -77.04051 19007 ft 421 kts 131°
2026-05-04 17:33 38.99176 -76.95336 20557 ft 431 kts 131°
2026-05-04 17:33 38.97220 -76.92384 21046 ft 435 kts 132°
2026-05-04 17:34 38.89378 -76.86982 22388 ft 437 kts 168°
2026-05-04 17:34 38.86434 -76.85959 22881 ft 440 kts 168°
2026-05-04 17:35 38.77462 -76.83019 24148 ft 449 kts 169°
2026-05-04 17:35 38.71355 -76.81065 24952 ft 454 kts 169°
2026-05-04 17:35 38.68278 -76.80083 25339 ft 457 kts 169°
2026-05-04 17:36 38.65180 -76.79096 25733 ft 459 kts 169°
2026-05-04 17:36 38.62070 -76.78105 26106 ft 462 kts 169°
2026-05-04 17:36 38.58941 -76.77110 26457 ft 464 kts 169°
2026-05-04 17:36 38.55834 -76.76121 26842 ft 466 kts 169°
2026-05-04 17:37 38.52638 -76.75107 27207 ft 469 kts 169°
2026-05-04 17:37 38.49466 -76.74100 27556 ft 471 kts 169°
2026-05-04 17:37 38.46313 -76.73100 27902 ft 473 kts 169°
2026-05-04 17:37 38.43103 -76.72083 28248 ft 476 kts 169°
2026-05-04 17:38 38.39855 -76.71252 28566 ft 475 kts 176°
2026-05-04 17:38 38.36571 -76.70706 28875 ft 477 kts 176°
2026-05-04 17:38 38.33264 -76.70163 29204 ft 479 kts 177°
2026-05-04 17:38 38.29946 -76.69625 29544 ft 481 kts 177°
2026-05-04 17:39 38.23315 -76.68556 30141 ft 485 kts 177°
2026-05-04 17:39 38.19951 -76.68015 30439 ft 486 kts 177°
2026-05-04 17:39 38.16595 -76.67475 30789 ft 486 kts 178°
2026-05-04 17:40 38.13239 -76.66936 31128 ft 486 kts 178°
2026-05-04 17:40 38.09880 -76.66464 31429 ft 482 kts 183°
2026-05-04 17:40 38.06532 -76.66285 31780 ft 481 kts 183°
2026-05-04 17:40 38.03185 -76.66082 32122 ft 481 kts 183°
2026-05-04 17:41 37.99875 -76.65860 32467 ft 481 kts 182°
2026-05-04 17:41 37.96534 -76.65628 32816 ft 480 kts 182°
2026-05-04 17:41 37.93199 -76.65395 33159 ft 480 kts 182°
2026-05-04 17:41 37.89863 -76.65161 33491 ft 479 kts 182°
2026-05-04 17:42 37.86535 -76.64928 33844 ft 477 kts 182°
2026-05-04 17:42 37.83229 -76.64696 34246 ft 474 kts 183°
2026-05-04 17:42 37.79937 -76.64466 34550 ft 473 kts 183°
2026-05-04 17:42 37.76663 -76.64238 34848 ft 471 kts 183°
2026-05-04 17:43 37.73378 -76.64008 35151 ft 470 kts 183°
2026-05-04 17:43 37.70119 -76.63781 35436 ft 469 kts 183°
2026-05-04 17:43 37.66902 -76.63557 35709 ft 467 kts 183°
2026-05-04 17:43 37.63659 -76.63331 35983 ft 466 kts 183°
2026-05-04 17:44 37.60420 -76.63103 36246 ft 465 kts 182°
2026-05-04 17:44 37.57192 -76.62585 36501 ft 468 kts 178°
2026-05-04 17:44 37.53968 -76.61998 36737 ft 467 kts 178°
2026-05-04 17:44 37.50748 -76.61439 36958 ft 466 kts 179°
2026-05-04 17:45 37.47533 -76.60897 37191 ft 465 kts 179°
2026-05-04 17:45 37.44328 -76.60360 37407 ft 464 kts 179°
2026-05-04 17:45 37.41127 -76.59826 37584 ft 463 kts 179°
2026-05-04 17:45 37.37982 -76.59301 37831 ft 461 kts 179°
2026-05-04 17:46 37.34799 -76.58770 38019 ft 460 kts 179°
2026-05-04 17:46 37.31617 -76.58241 38057 ft 461 kts 179°
2026-05-04 17:46 37.25276 -76.57187 38031 ft 458 kts 179°
2026-05-04 17:47 37.18975 -76.56141 38029 ft 459 kts 179°
2026-05-04 17:47 37.12647 -76.55092 38045 ft 458 kts 179°
2026-05-04 17:48 37.06327 -76.54047 38044 ft 457 kts 179°
2026-05-04 17:48 37.00053 -76.53011 38044 ft 457 kts 179°
2026-05-04 17:49 36.93742 -76.51970 38006 ft 457 kts 180°
2026-05-04 17:49 36.87438 -76.50933 38057 ft 456 kts 180°
2026-05-04 17:50 36.81148 -76.49899 38055 ft 455 kts 180°
2026-05-04 17:50 36.74912 -76.48560 38020 ft 467 kts 166°
2026-05-04 17:51 36.68983 -76.44992 37973 ft 476 kts 161°
2026-05-04 17:51 36.63096 -76.41285 38088 ft 478 kts 160°
2026-05-04 17:52 36.57172 -76.37507 38056 ft 477 kts 160°
2026-05-04 17:52 36.51253 -76.33736 38062 ft 477 kts 160°
2026-05-04 17:53 36.45340 -76.29974 38072 ft 477 kts 160°
2026-05-04 17:53 36.39472 -76.26246 38076 ft 476 kts 161°
2026-05-04 17:54 36.33582 -76.22511 38077 ft 475 kts 161°
2026-05-04 17:54 36.27692 -76.18766 38081 ft 477 kts 158°
2026-05-04 17:55 36.24976 -76.16317 38038 ft 491 kts 142°
2026-05-04 17:55 36.22599 -76.13253 38115 ft 493 kts 141°
2026-05-04 17:55 36.17826 -76.07083 38073 ft 496 kts 140°
2026-05-04 17:56 36.13083 -76.00859 38078 ft 497 kts 140°
2026-05-04 17:56 36.08375 -75.94677 38086 ft 496 kts 140°
2026-05-04 17:57 36.03636 -75.88467 38091 ft 496 kts 140°
2026-05-04 17:57 35.98896 -75.82266 38106 ft 496 kts 140°
2026-05-04 17:58 35.94150 -75.76070 38110 ft 497 kts 140°
2026-05-04 17:58 35.89385 -75.69859 38113 ft 499 kts 140°
2026-05-04 17:59 35.84649 -75.63693 38114 ft 496 kts 141°
2026-05-04 18:00 35.77519 -75.54425 38103 ft 496 kts 141°
2026-05-04 18:00 35.72764 -75.48258 38115 ft 496 kts 141°
2026-05-04 18:01 35.68003 -75.42095 38123 ft 496 kts 141°
2026-05-04 18:01 35.63278 -75.35989 38128 ft 496 kts 141°
2026-05-04 18:02 35.56137 -75.26783 38121 ft 494 kts 141°
2026-05-04 18:02 35.51386 -75.20672 38130 ft 494 kts 141°
2026-05-04 18:03 35.46680 -75.14631 38130 ft 493 kts 141°
2026-05-04 18:03 35.41929 -75.08540 38132 ft 493 kts 141°
2026-05-04 18:04 35.37175 -75.02460 38134 ft 494 kts 141°
2026-05-04 18:05 35.30039 -74.93353 38127 ft 494 kts 142°
2026-05-04 18:05 35.25310 -74.87332 38146 ft 493 kts 142°
2026-05-04 18:06 35.18170 -74.78261 38146 ft 493 kts 142°
2026-05-04 18:06 35.13408 -74.72223 38146 ft 493 kts 142°
2026-05-04 18:07 35.08675 -74.66235 38143 ft 493 kts 142°
2026-05-04 18:07 35.03910 -74.60216 38154 ft 493 kts 142°
2026-05-04 18:08 34.99143 -74.54205 38154 ft 492 kts 142°
2026-05-04 18:08 34.94411 -74.48249 38162 ft 492 kts 142°
2026-05-04 18:09 34.84857 -74.36257 38162 ft 492 kts 142°
2026-05-04 18:10 34.80092 -74.30291 38162 ft 490 kts 142°
2026-05-04 18:10 34.75368 -74.24388 38179 ft 489 kts 142°
2026-05-04 18:11 34.70610 -74.18452 38133 ft 489 kts 143°
2026-05-04 18:11 34.65868 -74.12546 38178 ft 487 kts 143°
2026-05-04 18:12 34.61136 -74.06663 38173 ft 486 kts 143°
2026-05-04 18:12 34.56429 -74.00822 38175 ft 487 kts 143°
2026-05-04 18:13 34.51693 -73.94954 38174 ft 485 kts 143°
2026-05-04 18:14 34.44604 -73.86190 38179 ft 485 kts 143°
2026-05-04 18:14 34.39886 -73.80366 38155 ft 484 kts 143°
2026-05-04 18:15 34.34683 -73.75796 38165 ft 444 kts 171°
2026-05-04 18:15 34.28810 -73.73574 38150 ft 442 kts 174°
2026-05-04 18:16 34.22890 -73.71551 38182 ft 441 kts 175°
2026-05-04 18:16 34.16960 -73.69601 38180 ft 440 kts 175°
2026-05-04 18:17 34.08150 -73.66730 38183 ft 437 kts 175°
2026-05-04 18:18 33.99368 -73.63875 38191 ft 433 kts 175°
2026-05-04 18:18 33.94522 -73.62303 38185 ft 433 kts 175°
2026-05-04 18:19 33.85786 -73.59472 38169 ft 432 kts 175°
2026-05-04 18:19 33.80020 -73.57608 38183 ft 431 kts 175°
2026-05-04 18:20 33.74217 -73.55734 38186 ft 431 kts 175°
2026-05-04 18:20 33.68418 -73.53864 38187 ft 431 kts 175°
2026-05-04 18:21 33.62625 -73.51998 38185 ft 431 kts 175°
2026-05-04 18:21 33.56837 -73.50137 38188 ft 429 kts 175°
2026-05-04 18:22 33.51068 -73.48284 38191 ft 429 kts 175°
2026-05-04 18:22 33.45337 -73.46446 38188 ft 429 kts 175°
2026-05-04 18:23 33.39568 -73.44598 38188 ft 429 kts 175°
2026-05-04 18:23 33.33799 -73.42753 38144 ft 428 kts 175°
2026-05-04 18:24 33.28045 -73.40915 38188 ft 427 kts 175°
2026-05-04 18:24 33.22337 -73.39094 38187 ft 427 kts 175°
2026-05-04 18:25 33.16590 -73.37264 38186 ft 427 kts 175°
2026-05-04 18:25 33.10844 -73.35436 38186 ft 427 kts 175°
2026-05-04 18:26 33.05094 -73.33610 38157 ft 427 kts 175°
2026-05-04 18:26 32.99380 -73.31797 38180 ft 427 kts 175°
2026-05-04 18:27 32.93630 -73.29976 38166 ft 427 kts 175°
2026-05-04 18:27 32.87932 -73.28173 38172 ft 421 kts 175°
2026-05-04 18:28 32.82288 -73.26390 38180 ft 422 kts 175°
2026-05-04 18:28 32.76608 -73.24598 38176 ft 422 kts 175°
2026-05-04 18:29 32.70935 -73.22810 38173 ft 422 kts 175°
2026-05-04 18:29 32.65294 -73.21035 38177 ft 422 kts 175°
2026-05-04 18:30 32.56775 -73.18358 38176 ft 422 kts 175°
2026-05-04 18:31 32.51102 -73.16579 38153 ft 421 kts 175°
2026-05-04 18:31 32.45419 -73.14799 38170 ft 422 kts 175°
2026-05-04 18:32 32.39780 -73.13034 38172 ft 421 kts 175°
2026-05-04 18:32 32.34111 -73.11263 38168 ft 421 kts 175°
2026-05-04 18:33 32.28434 -73.09492 38173 ft 421 kts 175°
2026-05-04 18:33 32.22759 -73.07724 38169 ft 421 kts 175°
2026-05-04 18:34 32.17080 -73.05956 38165 ft 421 kts 175°
2026-05-04 18:34 32.11437 -73.04202 38165 ft 421 kts 175°
2026-05-04 18:35 32.05761 -73.02440 38160 ft 421 kts 175°
2026-05-04 18:35 32.00076 -73.00678 38164 ft 422 kts 175°
2026-05-04 18:36 31.94408 -72.98923 38159 ft 421 kts 175°
2026-05-04 18:36 31.88768 -72.97179 38163 ft 421 kts 175°
2026-05-04 18:37 31.83095 -72.95427 38159 ft 421 kts 175°
2026-05-04 18:37 31.77458 -72.93688 38156 ft 415 kts 176°
2026-05-04 18:38 31.71910 -72.91979 38107 ft 415 kts 176°
2026-05-04 18:38 31.66325 -72.90261 38163 ft 415 kts 176°
2026-05-04 18:39 31.60741 -72.88545 38157 ft 414 kts 176°
2026-05-04 18:39 31.55157 -72.86831 38154 ft 414 kts 176°
2026-05-04 18:40 31.49612 -72.85131 38154 ft 414 kts 176°
2026-05-04 18:40 31.44028 -72.83422 38106 ft 414 kts 176°
2026-05-04 18:41 31.38448 -72.81716 38150 ft 414 kts 176°
2026-05-04 18:41 31.32871 -72.80012 38149 ft 414 kts 176°
2026-05-04 18:42 31.27294 -72.78311 38149 ft 414 kts 176°
2026-05-04 18:42 31.21713 -72.76611 38148 ft 414 kts 176°
2026-05-04 18:43 31.16167 -72.74923 38095 ft 414 kts 176°
2026-05-04 18:43 31.10572 -72.73223 38155 ft 416 kts 176°
2026-05-04 18:44 31.04959 -72.71519 38142 ft 415 kts 176°
2026-05-04 18:44 30.99356 -72.69820 38142 ft 416 kts 176°
2026-05-04 18:45 30.93787 -72.68134 38145 ft 416 kts 176°
2026-05-04 18:45 30.88179 -72.66438 38102 ft 416 kts 176°
2026-05-04 18:46 30.82560 -72.64741 38147 ft 417 kts 176°
2026-05-04 18:46 30.76976 -72.63056 38132 ft 417 kts 176°
2026-05-04 18:47 30.71349 -72.61360 38129 ft 417 kts 176°
2026-05-04 18:47 30.65732 -72.59669 38113 ft 416 kts 176°
2026-05-04 18:48 30.60124 -72.57983 38075 ft 415 kts 176°
2026-05-04 18:48 30.54554 -72.56311 38137 ft 417 kts 176°
2026-05-04 18:49 30.48929 -72.54624 38123 ft 416 kts 176°
2026-05-04 18:49 30.43310 -72.52941 38116 ft 417 kts 176°
2026-05-04 18:50 30.37692 -72.51261 38118 ft 417 kts 176°
2026-05-04 18:50 30.32121 -72.49596 38081 ft 417 kts 176°
2026-05-04 18:51 30.26496 -72.47917 38116 ft 418 kts 176°
2026-05-04 18:51 30.20860 -72.46237 38109 ft 417 kts 176°
2026-05-04 18:52 30.15230 -72.44569 38109 ft 417 kts 176°
2026-05-04 18:52 30.09600 -72.42922 38105 ft 417 kts 176°
2026-05-04 18:53 30.04001 -72.41285 38060 ft 417 kts 176°
2026-05-04 18:53 29.98363 -72.39638 38108 ft 418 kts 176°
2026-05-04 18:54 29.92722 -72.37992 38103 ft 418 kts 176°
2026-05-04 18:54 29.87077 -72.36348 38103 ft 418 kts 176°
2026-05-04 18:55 29.81434 -72.34705 38096 ft 418 kts 176°
2026-05-04 18:55 29.73000 -72.32253 38044 ft 418 kts 176°
2026-05-04 18:56 29.67347 -72.30613 38090 ft 419 kts 176°
2026-05-04 18:56 29.61690 -72.28973 38090 ft 419 kts 176°
2026-05-04 18:57 29.56074 -72.27347 38087 ft 419 kts 176°
2026-05-04 18:57 29.50418 -72.25711 38083 ft 419 kts 176°
2026-05-04 18:58 29.44803 -72.24088 38081 ft 412 kts 177°
2026-05-04 18:58 29.39236 -72.22483 38090 ft 412 kts 177°
2026-05-04 18:59 29.33669 -72.20878 38081 ft 412 kts 177°
2026-05-04 18:59 29.28134 -72.19285 38081 ft 412 kts 177°
2026-05-04 19:00 29.22566 -72.17683 38073 ft 412 kts 177°
2026-05-04 19:00 29.16996 -72.16083 38032 ft 412 kts 176°
2026-05-04 19:01 29.11446 -72.14491 38072 ft 412 kts 176°
2026-05-04 19:01 29.05928 -72.12909 38070 ft 411 kts 176°
2026-05-04 19:02 29.00359 -72.11314 38072 ft 411 kts 176°
2026-05-04 19:02 28.94794 -72.09723 38067 ft 412 kts 176°
2026-05-04 19:03 28.89233 -72.08134 38009 ft 412 kts 176°
2026-05-04 19:03 28.83685 -72.06551 38073 ft 416 kts 176°
2026-05-04 19:04 28.78039 -72.04942 38054 ft 418 kts 176°
2026-05-04 19:04 28.72398 -72.03335 38059 ft 418 kts 176°
2026-05-04 19:05 28.66752 -72.01730 38060 ft 418 kts 176°
2026-05-04 19:05 28.61151 -72.00138 38059 ft 418 kts 176°
2026-05-04 19:06 28.55486 -71.98531 38061 ft 421 kts 175°
2026-05-04 19:06 28.49773 -71.96912 38054 ft 423 kts 175°
2026-05-04 19:07 28.44059 -71.95293 38057 ft 423 kts 175°
2026-05-04 19:07 28.38385 -71.93688 38053 ft 423 kts 175°
2026-05-04 19:08 28.32672 -71.92074 38056 ft 422 kts 175°
2026-05-04 19:08 28.27919 -71.90734 38009 ft 424 kts 174°
2026-05-04 19:09 28.22158 -71.89111 38066 ft 428 kts 174°
2026-05-04 19:09 28.16384 -71.87484 38054 ft 426 kts 175°
2026-05-04 19:10 28.11587 -71.86135 38056 ft 426 kts 175°
2026-05-04 19:10 28.04892 -71.84254 38055 ft 426 kts 175°
2026-05-04 19:11 27.99116 -71.82633 38038 ft 427 kts 174°
2026-05-04 19:11 27.93320 -71.81009 38061 ft 429 kts 174°
2026-05-04 19:12 27.84631 -71.78576 38053 ft 429 kts 174°
2026-05-04 19:13 27.78873 -71.76967 38057 ft 429 kts 174°
2026-05-04 19:13 27.73077 -71.75348 38053 ft 428 kts 174°
2026-05-04 19:14 27.67282 -71.73732 38047 ft 431 kts 174°
2026-05-04 19:14 27.61435 -71.72103 38039 ft 432 kts 174°
2026-05-04 19:15 27.55594 -71.70477 38042 ft 432 kts 174°
2026-05-04 19:15 27.49796 -71.68865 38039 ft 432 kts 174°
2026-05-04 19:16 27.43956 -71.67244 38034 ft 432 kts 174°
2026-05-04 19:16 27.38115 -71.65623 38038 ft 434 kts 174°
2026-05-04 19:17 27.32224 -71.63991 38031 ft 435 kts 174°
2026-05-04 19:17 27.26376 -71.62372 38025 ft 435 kts 174°
2026-05-04 19:18 27.20494 -71.60746 38023 ft 435 kts 174°
2026-05-04 19:18 27.14616 -71.59122 38023 ft 435 kts 174°
2026-05-04 19:19 27.08730 -71.57499 38017 ft 437 kts 174°
2026-05-04 19:19 27.02824 -71.55872 38012 ft 440 kts 175°
2026-05-04 19:20 26.96888 -71.54237 38026 ft 439 kts 175°
2026-05-04 19:20 26.90954 -71.52605 38016 ft 438 kts 175°
2026-05-04 19:21 26.85018 -71.50974 38024 ft 439 kts 175°
2026-05-04 19:21 26.79072 -71.49343 37978 ft 440 kts 175°
2026-05-04 19:22 26.73125 -71.47713 38021 ft 444 kts 175°
2026-05-04 19:22 26.67117 -71.46067 38019 ft 443 kts 175°
2026-05-04 19:23 26.61117 -71.44426 38017 ft 443 kts 175°
2026-05-04 19:23 26.55148 -71.42795 38020 ft 444 kts 175°
2026-05-04 19:24 26.49147 -71.41157 38020 ft 443 kts 175°
2026-05-04 19:24 26.43161 -71.39525 38015 ft 443 kts 175°
2026-05-04 19:25 26.37188 -71.37899 38016 ft 443 kts 175°
2026-05-04 19:25 26.31188 -71.36267 38007 ft 443 kts 175°
2026-05-04 19:26 26.25191 -71.34636 38009 ft 443 kts 175°
2026-05-04 19:26 26.19176 -71.33004 38002 ft 445 kts 175°
2026-05-04 19:27 26.13157 -71.31371 38009 ft 448 kts 175°
2026-05-04 19:27 26.07094 -71.29729 38009 ft 447 kts 175°
2026-05-04 19:28 26.01036 -71.28090 38005 ft 448 kts 175°
2026-05-04 19:28 25.94991 -71.26456 38009 ft 448 kts 175°
2026-05-04 19:29 25.88961 -71.24828 38002 ft 449 kts 175°
2026-05-04 19:29 25.82863 -71.23182 38007 ft 451 kts 175°
2026-05-04 19:30 25.76763 -71.21539 38011 ft 451 kts 175°
2026-05-04 19:30 25.70673 -71.19899 38011 ft 451 kts 175°
2026-05-04 19:31 25.64571 -71.18258 38012 ft 451 kts 175°
2026-05-04 19:31 25.58506 -71.16629 37999 ft 452 kts 175°
2026-05-04 19:32 25.52371 -71.14983 38015 ft 454 kts 175°
2026-05-04 19:32 25.46240 -71.13340 38013 ft 453 kts 175°
2026-05-04 19:33 25.40108 -71.11698 38012 ft 453 kts 175°
2026-05-04 19:33 25.33978 -71.10058 38234 ft 452 kts 175°
2026-05-04 19:34 25.27893 -71.08432 38369 ft 454 kts 175°
2026-05-04 19:34 25.21747 -71.06791 38557 ft 455 kts 175°
2026-05-04 19:34 25.18664 -71.05968 38663 ft 455 kts 175°
2026-05-04 19:35 25.15586 -71.05148 38774 ft 455 kts 175°
2026-05-04 19:35 25.09436 -71.03509 38975 ft 453 kts 175°
2026-05-04 19:36 25.03284 -71.01872 39012 ft 455 kts 175°
2026-05-04 19:36 24.97522 -71.00777 39025 ft 443 kts 185°
2026-05-04 19:37 24.91908 -71.00197 39009 ft 446 kts 184°
2026-05-04 19:37 24.85704 -70.99576 39020 ft 448 kts 184°
2026-05-04 19:38 24.79481 -70.98956 39018 ft 449 kts 184°
2026-05-04 19:38 24.73299 -70.98342 39018 ft 448 kts 184°
2026-05-04 19:39 24.67077 -70.97724 39009 ft 448 kts 184°
2026-05-04 19:39 24.60854 -70.97107 39017 ft 449 kts 184°
2026-05-04 19:40 24.54626 -70.96490 39012 ft 449 kts 184°
2026-05-04 19:40 24.48398 -70.95873 39015 ft 449 kts 184°
2026-05-04 19:41 24.42215 -70.95262 39014 ft 449 kts 184°
2026-05-04 19:41 24.35980 -70.94646 39010 ft 450 kts 184°
2026-05-04 19:42 24.29725 -70.94029 39017 ft 452 kts 184°
2026-05-04 19:42 24.23461 -70.93411 39015 ft 451 kts 184°
2026-05-04 19:43 24.17202 -70.92793 39016 ft 452 kts 183°
2026-05-04 19:43 24.14110 -70.92140 38997 ft 466 kts 169°
2026-05-04 19:43 24.11136 -70.90597 39022 ft 482 kts 154°
2026-05-04 19:44 24.05821 -70.85928 39031 ft 491 kts 147°
2026-05-04 19:44 24.00560 -70.81089 39017 ft 495 kts 147°
2026-05-04 19:45 23.95287 -70.76202 39025 ft 497 kts 147°
2026-05-04 19:45 23.90010 -70.71314 39017 ft 497 kts 147°
2026-05-04 19:46 23.84769 -70.66465 39019 ft 496 kts 147°
2026-05-04 19:46 23.79492 -70.61587 39025 ft 496 kts 147°
2026-05-04 19:47 23.74211 -70.56711 39004 ft 496 kts 147°
2026-05-04 19:47 23.68943 -70.51852 39018 ft 495 kts 146°
2026-05-04 19:48 23.63720 -70.47042 39018 ft 494 kts 146°
2026-05-04 19:48 23.58459 -70.42200 39019 ft 494 kts 146°
2026-05-04 19:49 23.53197 -70.37363 39021 ft 494 kts 146°
2026-05-04 19:49 23.47969 -70.32563 39021 ft 494 kts 146°
2026-05-04 19:50 23.42714 -70.27742 39019 ft 494 kts 146°
2026-05-04 19:50 23.37452 -70.22921 39022 ft 494 kts 147°
2026-05-04 19:51 23.32189 -70.18103 39019 ft 494 kts 146°
2026-05-04 19:51 23.26943 -70.13308 39023 ft 496 kts 146°
2026-05-04 19:52 23.21656 -70.08479 39025 ft 495 kts 146°
2026-05-04 19:52 23.16377 -70.03662 39020 ft 495 kts 146°
2026-05-04 19:53 23.11087 -69.98841 39020 ft 495 kts 146°
2026-05-04 19:53 23.05839 -69.94063 39007 ft 495 kts 146°
2026-05-04 19:54 23.00537 -69.89241 39022 ft 498 kts 146°
2026-05-04 19:54 22.95212 -69.84403 39016 ft 498 kts 146°
2026-05-04 19:55 22.89889 -69.79573 39019 ft 498 kts 146°
2026-05-04 19:55 22.84561 -69.74743 39021 ft 498 kts 146°
2026-05-04 19:56 22.79269 -69.69950 39023 ft 498 kts 146°
2026-05-04 19:56 22.73943 -69.65132 39022 ft 498 kts 146°
2026-05-04 19:57 22.69516 -69.61131 39007 ft 498 kts 146°
2026-05-04 19:57 22.64188 -69.56321 39022 ft 499 kts 146°
2026-05-04 19:58 22.58853 -69.51508 39010 ft 498 kts 146°
2026-05-04 19:58 22.53553 -69.46733 39020 ft 499 kts 146°
2026-05-04 19:59 22.48215 -69.41928 39020 ft 499 kts 146°
2026-05-04 19:59 22.42876 -69.37127 39022 ft 499 kts 146°
2026-05-04 20:00 22.37533 -69.32329 39025 ft 499 kts 146°
2026-05-04 20:00 22.32186 -69.27530 39029 ft 500 kts 146°
2026-05-04 20:01 22.26866 -69.22761 39022 ft 499 kts 146°
2026-05-04 20:01 22.21512 -69.17967 39014 ft 499 kts 146°
2026-05-04 20:02 22.16162 -69.13181 39020 ft 499 kts 146°
2026-05-04 20:02 22.10810 -69.08399 39021 ft 499 kts 146°
2026-05-04 20:03 22.05493 -69.03652 39020 ft 499 kts 146°
2026-05-04 20:03 22.00146 -68.98883 39010 ft 498 kts 145°
2026-05-04 20:04 21.94795 -68.94116 39019 ft 498 kts 145°
2026-05-04 20:04 21.89445 -68.89355 39022 ft 498 kts 145°
2026-05-04 20:05 21.84140 -68.84637 39020 ft 498 kts 145°
2026-05-04 20:05 21.78792 -68.79887 39023 ft 497 kts 145°
2026-05-04 20:06 21.73446 -68.75143 39025 ft 497 kts 145°
2026-05-04 20:06 21.68146 -68.70445 39024 ft 497 kts 145°
2026-05-04 20:07 21.62806 -68.65716 39026 ft 496 kts 145°
2026-05-04 20:07 21.57470 -68.60995 39025 ft 496 kts 145°
2026-05-04 20:08 21.52132 -68.56276 39029 ft 496 kts 145°
2026-05-04 20:08 21.46800 -68.51568 39026 ft 496 kts 145°
2026-05-04 20:09 21.41498 -68.46891 39026 ft 496 kts 145°
2026-05-04 20:09 21.36164 -68.42191 39029 ft 496 kts 145°
2026-05-04 20:10 21.30829 -68.37494 39022 ft 495 kts 145°
2026-05-04 20:10 21.25498 -68.32805 39029 ft 495 kts 145°
2026-05-04 20:11 21.20169 -68.28122 39029 ft 495 kts 145°
2026-05-04 20:11 21.14872 -68.23471 39028 ft 495 kts 145°
2026-05-04 20:12 21.09536 -68.18791 39027 ft 495 kts 145°
2026-05-04 20:12 21.04201 -68.14115 39029 ft 495 kts 145°
2026-05-04 20:13 20.98864 -68.09442 39028 ft 495 kts 145°
2026-05-04 20:13 20.93523 -68.04771 39024 ft 495 kts 144°
2026-05-04 20:14 20.88191 -68.00111 39023 ft 495 kts 144°
2026-05-04 20:14 20.85725 -67.97601 38998 ft 499 kts 130°
2026-05-04 20:14 20.83654 -67.94559 39058 ft 498 kts 130°
2026-05-04 20:15 20.79396 -67.88749 39022 ft 500 kts 131°
2026-05-04 20:15 20.75096 -67.82871 39028 ft 502 kts 131°
2026-05-04 20:16 20.70791 -67.76988 39026 ft 502 kts 131°
2026-05-04 20:16 20.66486 -67.71111 39026 ft 502 kts 131°
2026-05-04 20:17 20.62177 -67.65236 39026 ft 502 kts 131°
2026-05-04 20:17 20.57901 -67.59411 39024 ft 501 kts 131°
2026-05-04 20:18 20.53595 -67.53552 39022 ft 500 kts 130°
2026-05-04 20:18 20.49291 -67.47701 39027 ft 501 kts 130°
2026-05-04 20:19 20.45015 -67.41893 39028 ft 501 kts 130°
2026-05-04 20:19 20.40704 -67.36043 39026 ft 501 kts 130°
2026-05-04 20:20 20.36399 -67.30180 39021 ft 501 kts 130°
2026-05-04 20:20 20.32128 -67.24370 39023 ft 501 kts 130°
2026-05-04 20:21 20.27828 -67.18527 39026 ft 501 kts 130°
2026-05-04 20:21 20.21377 -67.09770 39014 ft 500 kts 130°
2026-05-04 20:22 20.17077 -67.03943 39022 ft 499 kts 130°
2026-05-04 20:22 20.12784 -66.98128 39024 ft 499 kts 130°
2026-05-04 20:23 20.08486 -66.92314 39022 ft 499 kts 130°
2026-05-04 20:23 20.04216 -66.86542 39027 ft 499 kts 130°
2026-05-04 20:24 19.99841 -66.80814 39007 ft 496 kts 139°
2026-05-04 20:24 19.94396 -66.76452 39034 ft 490 kts 148°
2026-05-04 20:25 19.88759 -66.72335 39031 ft 492 kts 149°
2026-05-04 20:25 19.83110 -66.68293 39022 ft 492 kts 149°
2026-05-04 20:26 19.77417 -66.64235 39024 ft 492 kts 149°
2026-05-04 20:26 19.71720 -66.60177 39023 ft 492 kts 149°
2026-05-04 20:27 19.66171 -66.56228 39025 ft 492 kts 149°
2026-05-04 20:27 19.60499 -66.52206 37972 ft 487 kts 151°
2026-05-04 20:28 19.57465 -66.50628 36639 ft 486 kts 164°
2026-05-04 20:28 19.54298 -66.49410 35822 ft 480 kts 163°
2026-05-04 20:28 19.51217 -66.48228 35024 ft 475 kts 163°
2026-05-04 20:28 19.48112 -66.47065 34163 ft 471 kts 163°
2026-05-04 20:29 19.45106 -66.45955 33157 ft 469 kts 163°
2026-05-04 20:29 19.42016 -66.44822 31969 ft 471 kts 163°
2026-05-04 20:29 19.38891 -66.43679 30664 ft 477 kts 162°
2026-05-04 20:29 19.35736 -66.42525 29215 ft 483 kts 162°
2026-05-04 20:30 19.32539 -66.41358 27708 ft 487 kts 162°
2026-05-04 20:30 19.29325 -66.40185 26281 ft 489 kts 162°
2026-05-04 20:30 19.26122 -66.39015 25211 ft 483 kts 162°
2026-05-04 20:30 19.23008 -66.37878 24221 ft 475 kts 162°
2026-05-04 20:31 19.19912 -66.36749 23175 ft 467 kts 162°
2026-05-04 20:31 19.16865 -66.35638 22042 ft 459 kts 162°
2026-05-04 20:31 19.13862 -66.34542 21017 ft 452 kts 162°
2026-05-04 20:31 19.10932 -66.33411 20085 ft 446 kts 158°
2026-05-04 20:32 19.08137 -66.32044 19235 ft 439 kts 158°
2026-05-04 20:32 19.05385 -66.30714 18454 ft 431 kts 159°
2026-05-04 20:32 19.02666 -66.29416 17611 ft 424 kts 159°
2026-05-04 20:32 18.99995 -66.28147 16787 ft 417 kts 158°
2026-05-04 20:33 18.97369 -66.26903 15986 ft 410 kts 158°
2026-05-04 20:33 18.94782 -66.25679 15220 ft 403 kts 158°
2026-05-04 20:33 18.92238 -66.24474 14483 ft 397 kts 158°
2026-05-04 20:33 18.89769 -66.23305 13796 ft 390 kts 157°
2026-05-04 20:34 18.87317 -66.22145 13041 ft 383 kts 157°
2026-05-04 20:34 18.84912 -66.21007 12331 ft 375 kts 156°
2026-05-04 20:34 18.82558 -66.19895 11726 ft 366 kts 156°
2026-05-04 20:34 18.80265 -66.18810 11169 ft 356 kts 156°
2026-05-04 20:35 18.78037 -66.17758 10677 ft 346 kts 156°
2026-05-04 20:35 18.75861 -66.16753 10189 ft 335 kts 161°
2026-05-04 20:35 18.73632 -66.16423 9759 ft 325 kts 184°
2026-05-04 20:35 18.71429 -66.16713 9355 ft 313 kts 186°
2026-05-04 20:36 18.69296 -66.16963 8917 ft 304 kts 185°
2026-05-04 20:36 18.67228 -66.17202 8539 ft 294 kts 184°
2026-05-04 20:36 18.65226 -66.17433 8147 ft 285 kts 185°
2026-05-04 20:36 18.63285 -66.17657 7818 ft 275 kts 184°
2026-05-04 20:37 18.61416 -66.17872 7518 ft 265 kts 184°
2026-05-04 20:37 18.59625 -66.18079 7308 ft 249 kts 185°
2026-05-04 20:37 18.57951 -66.18272 6977 ft 237 kts 185°
2026-05-04 20:37 18.56348 -66.18457 6642 ft 227 kts 184°
2026-05-04 20:38 18.54816 -66.18633 6343 ft 216 kts 184°
2026-05-04 20:38 18.53359 -66.18801 6043 ft 205 kts 183°
2026-05-04 20:38 18.51991 -66.18958 5757 ft 196 kts 184°
2026-05-04 20:38 18.50672 -66.19112 5490 ft 185 kts 182°
2026-05-04 20:39 18.49436 -66.19256 5219 ft 172 kts 182°
2026-05-04 20:39 18.48250 -66.19390 4728 ft 173 kts 184°
2026-05-04 20:39 18.47033 -66.19530 4201 ft 177 kts 182°
2026-05-04 20:39 18.45833 -66.19669 3843 ft 170 kts 182°
2026-05-04 20:40 18.44701 -66.19541 3460 ft 163 kts 152°
2026-05-04 20:40 18.43889 -66.18749 3152 ft 162 kts 116°
2026-05-04 20:40 18.43604 -66.17588 2952 ft 168 kts 101°
2026-05-04 20:40 18.43469 -66.16342 2722 ft 173 kts 98°
2026-05-04 20:41 18.43413 -66.15080 2481 ft 170 kts 96°
2026-05-04 20:41 18.43391 -66.13842 2249 ft 168 kts 94°
2026-05-04 20:41 18.43379 -66.12619 2039 ft 166 kts 92°
2026-05-04 20:41 18.43380 -66.11421 1824 ft 158 kts 95°
2026-05-04 20:42 18.43380 -66.10334 1641 ft 140 kts 95°
2026-05-04 20:42 18.43373 -66.09329 1462 ft 137 kts 93°
2026-05-04 20:42 18.43372 -66.08339 1308 ft 133 kts 96°
2026-05-04 20:42 18.43366 -66.07371 1116 ft 134 kts 94°
2026-05-04 20:43 18.43366 -66.06381 987 ft 136 kts 94°
2026-05-04 20:43 18.43373 -66.05363 863 ft 138 kts 92°
2026-05-04 20:43 18.43386 -66.04368 625 ft 137 kts 94°
2026-05-04 20:43 18.43370 -66.03396 423 ft 127 kts 91°
2026-05-04 20:44 18.43367 -66.02463 256 ft 128 kts 91°
2026-05-04 20:44 18.43359 -66.01512 92 ft 133 kts 93°
2026-05-04 20:44 18.43354 -66.00583 20 ft 115 kts 90°
2026-05-04 20:44 18.43353 -65.99947 19 ft 57 kts 90°
2026-05-04 20:45 18.43352 -65.99682 19 ft 23 kts 91°
2026-05-04 20:45 18.43401 -65.99551 20 ft 13 kts 21°
2026-05-04 20:45 18.43460 -65.99551 19 ft 12 kts 331°
2026-05-04 20:45 18.43464 -65.99636 19 ft 13 kts 269°
2026-05-04 20:46 18.43463 -65.99735 19 ft 14 kts 270°
2026-05-04 20:46 18.43463 -65.99847 19 ft 16 kts 270°
2026-05-04 20:46 18.43463 -65.99970 19 ft 18 kts 270°
2026-05-04 20:46 18.43465 -66.00150 19 ft 20 kts 271°
2026-05-04 20:47 18.43481 -66.00226 21 ft 7 kts 320°
2026-05-04 20:47 18.43532 -66.00227 19 ft 8 kts 13°
2026-05-04 20:47 18.43566 -66.00189 19 ft 7 kts 68°
2026-05-04 20:47 18.43597 -66.00166 21 ft 5 kts 341°
2026-05-04 20:48 18.43626 -66.00177 19 ft 1 kts 343°
2026-05-04 20:48 18.43627 -66.00178 19 ft 0 kts 343°